Weather History for San Angelo, TX

Change the Weather History Date:

Saturday, October 26, 2013

  Actual Average Record
Temperature  
Mean Temperature 68 °F 63 °F  
Max Temperature 78 °F 76 °F 91 °F (1992)
Min Temperature 58 °F 51 °F 30 °F (1924)
Degree Days  
Heating Degree Days 0 4  
Month to date heating degree days 76 56  
Since 1 July heating degree days 76 65  
Cooling Degree Days 3 2  
Month to date cooling degree days 115 108  
Year to date cooling degree days 2829 2473  
Growing Degree Days 18 (Base 50)    
Moisture  
Dew Point 58 °F    
Average Humidity 72    
Maximum Humidity 90    
Minimum Humidity 54    
Precipitation  
Precipitation 0.00 in 0.08 in 0.69 in (1971)
Month to date precipitation 1.39 2.37  
Year to date precipitation 17.77 18.90  
Snow  
Snow 0.00 in 0.00 in 0.00 in (2002)
Month to date snowfall 0.0 0.0  
Since 1 July snowfall 0.0 0.0  
Snow Depth 0.00 in    
Sea Level Pressure  
Sea Level Pressure 30.11 in    
Wind  
Wind Speed 8 mph (South)    
Max Wind Speed 23 mph    
Max Gust Speed 30 mph    
Visibility 10 miles    
Events      
T = Trace of Precipitation, MM = Missing Value Source: NWS Daily Summary

Daily Weather History Graph

Daily Weather History Graph

Search for Another Location

Airport:

Trip Planner

Search our weather history database for the weather conditions in past years. The results will help you decide how hot, cold, wet, or windy it might be!

Date:

Astronomy

Oct. 26, 2013 Rise Set
Actual Time 7:53 AM CDT 6:58 PM CDT
Civil Twilight 7:28 AM CDT 7:22 PM CDT
Nautical Twilight 6:59 AM CDT 7:51 PM CDT
Astronomical Twilight 6:31 AM CDT 8:19 PM CDT
Moon 12:25 AM CDT (10/26) 2:07 PM CDT (10/26)
Length of Visible Light 11h 54m
Length of Day
11h 04m
Waning Gibbous, 53% of the Moon is Illuminated
Oct 26
Waning Gibbous
Oct 26
Last Quarter
Nov 3
New
Nov 9
First Quarter
Nov 17
Full

Hourly Weather History & Observations

Time (CDT) Temp. Dew Point Humidity Pressure Visibility Wind Dir Wind Speed Gust Speed Precip Events Conditions
12:51 AM 59.0 °F 53.1 °F 81% 30.15 in 10.0 mi Calm Calm - N/A   Overcast
1:51 AM 60.1 °F 52.0 °F 75% 30.13 in 10.0 mi Calm Calm - N/A   Mostly Cloudy
2:27 AM 60.8 °F 53.6 °F 77% 30.17 in 10.0 mi Calm Calm - N/A   Overcast
2:51 AM 60.1 °F 55.0 °F 83% 30.12 in 10.0 mi East 3.5 mph - N/A   Overcast
3:51 AM 60.1 °F 55.9 °F 86% 30.11 in 10.0 mi East 4.6 mph - N/A   Mostly Cloudy
4:03 AM 59.0 °F 55.4 °F 88% 30.14 in 10.0 mi East 5.8 mph - N/A   Mostly Cloudy
4:29 AM 59.0 °F 55.4 °F 88% 30.14 in 10.0 mi East 5.8 mph - N/A   Mostly Cloudy
4:51 AM 59.0 °F 55.9 °F 90% 30.09 in 10.0 mi East 4.6 mph - N/A   Overcast
5:37 AM 59.0 °F 55.4 °F 88% 30.13 in 10.0 mi ENE 4.6 mph - N/A   Overcast
5:51 AM 60.1 °F 57.0 °F 90% 30.09 in 10.0 mi East 4.6 mph - N/A   Overcast
6:51 AM 61.0 °F 57.9 °F 90% 30.11 in 10.0 mi Calm Calm - N/A   Overcast
7:51 AM 61.0 °F 57.9 °F 90% 30.13 in 10.0 mi Calm Calm - N/A   Overcast
8:08 AM 60.8 °F 57.2 °F 88% 30.15 in 10.0 mi ESE 4.6 mph - N/A   Overcast
8:29 AM 62.6 °F 59.0 °F 88% 30.15 in 10.0 mi South 3.5 mph - N/A   Overcast
8:51 AM 66.9 °F 61.0 °F 81% 30.12 in 10.0 mi South 5.8 mph - N/A   Mostly Cloudy
9:51 AM 69.1 °F 61.0 °F 75% 30.13 in 10.0 mi South 13.8 mph 20.7 mph N/A   Mostly Cloudy
10:51 AM 72.0 °F 60.1 °F 66% 30.14 in 10.0 mi SSW 19.6 mph 25.3 mph N/A   Mostly Cloudy
11:15 AM 71.6 °F 60.8 °F 69% 30.16 in 10.0 mi SSW 17.3 mph 26.5 mph N/A   Mostly Cloudy
11:51 AM 72.0 °F 60.1 °F 66% 30.13 in 10.0 mi SSW 15.0 mph 23.0 mph N/A   Mostly Cloudy
12:51 PM 75.0 °F 60.1 °F 60% 30.11 in 10.0 mi SSW 16.1 mph 23.0 mph N/A   Overcast
1:51 PM 75.0 °F 60.1 °F 60% 30.10 in 10.0 mi SSW 12.7 mph - N/A   Overcast
2:51 PM 77.0 °F 60.1 °F 56% 30.06 in 10.0 mi SSW 18.4 mph 21.9 mph N/A   Scattered Clouds
3:51 PM 75.9 °F 60.1 °F 58% 30.05 in 10.0 mi SSW 11.5 mph - N/A   Partly Cloudy
4:51 PM 78.1 °F 60.1 °F 54% 30.04 in 10.0 mi SW 13.8 mph - N/A   Mostly Cloudy
5:51 PM 75.9 °F 60.1 °F 58% 30.04 in 10.0 mi SSW 8.1 mph - N/A   Scattered Clouds
6:51 PM 72.0 °F 60.1 °F 66% 30.04 in 10.0 mi SSW 5.8 mph - N/A   Partly Cloudy
7:51 PM 68.0 °F 60.1 °F 76% 30.06 in 10.0 mi SSW 8.1 mph - N/A   Partly Cloudy
8:51 PM 64.9 °F 59.0 °F 81% 30.08 in 10.0 mi SSW 6.9 mph - N/A   Partly Cloudy
9:51 PM 63.0 °F 59.0 °F 87% 30.09 in 10.0 mi South 4.6 mph - N/A   Clear
10:51 PM 63.0 °F 59.0 °F 87% 30.09 in 10.0 mi NW 3.5 mph - N/A   Mostly Cloudy
11:51 PM 64.0 °F 57.9 °F 80% 30.09 in 10.0 mi West 5.8 mph - N/A   Clear